Location: Starlight Observatory
(38.4029°N, 85.8936°W)
Time: 21:49:36
(UTC-04:00)

Iridium 84 - Visible Passes

Search period start: 01 September 2014 00:00
Search period end: 11 September 2014 00:00
Orbit: 776 x 779 km, 86.4° (Epoch: 01 September)

Date Brightness Start Highest point End Pass type
(mag) Time Alt. Az. Time Alt. Az. Time Alt. Az.
01 Sep 8.0 05:54:44 10° SE 05:58:48 24° E 06:02:53 10° NNE visible
02 Sep 8.6 05:23:29 10° ESE 05:25:37 13° ENE 05:27:45 10° NE visible
03 Sep 6.1 06:27:01 10° S 06:32:09 65° E 06:37:19 10° N visible
04 Sep 7.3 05:54:07 10° SSE 05:58:46 34° E 06:03:26 10° NNE visible
05 Sep 8.3 05:21:59 10° ESE 05:25:30 19° E 05:29:01 10° NE visible
06 Sep 5.5 06:27:01 10° S 06:32:13 86° W 06:37:27 10° N visible
07 Sep 6.5 05:53:46 10° SSE 05:58:45 50° E 06:03:47 10° NNE visible
08 Sep 7.6 05:21:07 10° SE 05:25:25 27° E 05:29:44 10° NNE visible
09 Sep 8.4 04:49:29 10° ESE 04:52:12 14° ENE 04:54:55 10° NE visible
09 Sep 5.6 06:27:13 10° SSW 06:32:20 59° W 06:37:28 10° N visible
10 Sep 5.7 05:53:37 10° S 05:58:48 75° E 06:04:00 10° N visible
